SCP
0 0 0 0 0 0 0 0 0 0 0 0 0 0 0 0 0 0 0 0 0 0 0 0 0 0 0 0 0 0 0 0 0 0 0 0 0 0
0 0 0 0 0 0 0 0 0 0 0 0 0 0 0 0 0 0 0 0 0 0 0 0 0 0 0 0 0 0 0 0 0 0 0 0 0 0
0 0 0 0 0 0 0 0 0 0 0 0 0 0 0 0 0 0 0 0 0 0 0 0 0 0 0 0 0 0 0 0 0 0 0 0 0 0
0 0 0 0 0 0 0 0 0 0 0 0 0 0 0 0 0 0 0 0 0 0 0 0 0 0 0 0 0 0 0 0 0 0 0 0 0 0
0 0 0 0 0 0 0 0 0 0 0 0 0 0 0 0 0 0 0 0 0 0 0 0 0 0 0 0 0 0 0 0 0 0 0 0 0 0
0 0 0 0 0 0 0 0 0 0 0 0 0 0 0 0 0 0 0 0 0 0 0 0 0 0 0 0 0 0 0 0 0 0 0 0 0 0
0 0 0 0 0 0 0 0 0 0 0 0 0 0 0 0 0 0 0 0 0 0 0 0 0 0 0 0 0 0 0 0 0 0 0 0 0 0
0 0 0 0 0 0 0 0 0 0 0 0 0 0 0 0 0 0 0 0 0 0 0 0 0 0 0 0 0 0 0 0 0 0 0 0 0 0
0 0 0 0 0 0 0 0 0 0 0 0 0 0 0 0 0 0 0 0 0 0 0 0 0 0 0 0 0 0 0 0 0 0 0 0 0 0
0 0 0 0 0 0 0 0 0 0 0 0 0 0 0 0 0 0 0 0 0 0 0 0 0 0 0 0 0 0 0 0 0 0 0 0 0 0
0 0 0 0 0 0 0 0 0 0 0 0 0 0 0 0 0 0 0 0 0 0 0 0 0 0 0 0 0 0 0 0 0 0 0 0 0 0
0 0 0 0 0 0 0 0 0 0 0 0 0 0 0 0 0 0 0 0 0 0 0 0 0 0 0 0 0 0 0 0 0 0 0 0 0 0
0 0 0 0 0 0 0 0 0 0 0 0 0 0 0 0 0 0 0 0 0 0 0 0 0 0 0 0 0 0 0 0 0 0 0 0 0 0
0 0 0 0 0 0 0 0 0 0 0 0 0 0 0 0 0 0 0 0 0 0 0 0 0 0 0 0 0 0 0 0 0 0 0 0 0 0
0 0 0 0 0 0 0 0 0 0 0 0 0 0 0 0 0 0 0 0 0 0 0 0 0 0 0 0 0 0 0 0 0 0 0 0 0 0
0 0 0 0 0 0 0 0 0 0 0 0 0 0 0 0 0 0 0 0 0 0 0 0 0 0 0 0 0 0 0 0 0 0 0 0 0 0
0 0 0 0 0 0 0 0 0 0 0 0 0 0 0 0 0 0 0 0 0 0 0 0 0 0 0 0 0 0 0 0 0 0 0 0 0 0
0 0 0 0 0 0 0 0 0 0 0 0 0 0 0 0 0 0 0 0 0 0 0 0 0 0 0 0 0 0 0 0 0 0 0 0 0 0
0 0 0 0 0 0 0 0 0 0 0 0 0 0 0 0 0 0 0 0 0 0 0 0 0 0 0 0 0 0 0 0 0 0 0 0 0 0
0 0 0 0 0 0 0 0 0 0 0 0 0 0 0 0 0 0 0 0 0 0 0 0 0 0 0 0 0 0 0 0 0 0 0 0 0 0
0 0 0 0 0 0 0 0 0 0 0 0 0 0 0 0 0 0 0 0 0 0 0 0 0 0 0 0 0 0 0 0 0 0 0 0 0 0
0 0 0 0 0 0 0 0 0 0 0 0 0 0 0 0 0 0 0 0 0 0 0 0 0 0 0 0 0 0 0 0 0 0 0 0 0 0
0 0 0 0 0 0 0 0 0 0 0 0 0 0 0 0 0 0 0 0 0 0 0 0 0 0 0 0 0 0 0 0 0 0 0 0 0 0
Wind_Speed_500mb
40 40 40 40 42 44 47 46 46 33 22 26 34 37 39 38 32 32 25 25 25 23 25 26 26 25 25 26 27 28 28 29 26 26 26 25 24 22
42 43 43 41 43 41 40 36 37 41 32 21 24 30 29 30 32 33 28 26 26 25 24 24 23 21 21 21 20 17 17 18 17 19 19 19 18 19
45 44 43 42 41 40 40 40 41 42 48 48 40 27 32 33 35 31 25 25 26 24 23 23 21 18 16 16 16 15 14 14 14 15 15 16 17 18
47 47 48 46 47 45 44 43 44 44 48 49 47 48 53 51 44 26 26 24 24 25 22 20 19 18 17 18 19 19 18 17 17 19 19 20 21 23
50 52 51 48 45 45 45 44 44 44 43 46 47 46 45 39 34 35 36 26 25 28 26 24 23 23 23 22 21 22 24 25 25 25 24 24 25 27
46 46 44 43 40 39 40 42 42 42 42 42 43 47 45 34 32 26 31 32 30 33 31 29 29 30 30 30 30 29 28 30 31 31 31 30 31 32
43 43 41 40 38 39 40 40 40 42 43 43 46 46 46 34 25 25 28 30 32 35 35 34 34 35 35 37 37 36 33 33 34 36 36 35 36 37
42 41 38 36 37 39 40 39 43 44 46 46 48 43 34 23 21 25 28 30 30 32 34 37 39 39 38 41 39 39 38 38 39 38 38 41 41 41
40 38 36 35 34 36 38 38 41 42 44 47 50 36 27 20 23 28 31 35 37 37 40 43 38 39 35 40 41 42 45 43 41 42 44 43 42 45
41 38 36 34 33 36 39 42 47 51 49 47 49 41 41 34 35 34 40 44 46 47 44 55 50 46 40 41 45 46 45 44 44 45 44 45 46 47
45 42 40 40 36 36 40 44 49 51 53 54 51 44 39 37 39 42 51 47 52 55 47 49 57 50 41 38 42 46 47 46 47 51 47 46 43 41
42 40 36 35 32 33 38 42 47 44 42 44 45 45 43 43 42 44 49 48 47 51 47 40 42 36 21 29 31 31 36 39 40 44 43 40 41 47
35 34 32 30 31 32 33 38 39 33 34 37 39 42 46 47 49 47 50 53 54 54 56 51 49 46 43 42 41 36 29 29 29 31 36 44 51 49
33 31 30 29 28 32 36 39 40 36 38 37 38 39 43 44 46 47 49 56 59 62 56 63 62 59 57 56 52 50 48 47 47 46 48 51 53 55
26 24 25 26 27 31 35 38 40 43 49 51 51 47 42 44 46 49 47 48 53 58 55 58 64 64 62 63 63 59 55 53 48 45 43 43 44 47
25 24 24 25 25 28 32 35 42 43 42 41 40 37 38 40 43 45 50 48 50 49 49 50 50 53 60 58 55 56 48 40 38 39 49 50 50 53
19 21 25 26 26 25 25 25 29 36 45 49 52 50 49 50 52 50 46 44 50 47 41 39 43 44 49 54 55 49 45 46 43 47 50 48 44 44
20 18 20 21 23 24 26 26 25 24 24 30 42 43 42 42 40 36 33 33 35 36 36 35 39 43 48 51 50 48 47 48 47 46 45 50 53 44
31 32 30 29 26 28 30 30 29 29 31 31 33 34 36 35 33 35 34 35 39 41 40 40 42 42 40 44 46 43 44 46 47 48 48 50 50 46
39 40 40 39 38 38 37 39 39 39 38 38 39 40 41 41 40 38 35 36 40 42 42 43 45 45 46 48 47 50 47 43 46 49 48 48 50 49
47 50 51 52 51 50 49 50 50 49 48 48 47 47 46 48 47 44 43 41 40 39 39 38 38 40 43 45 48 49 45 43 45 48 49 49 48 48
57 59 58 59 60 60 61 60 61 61 60 60 58 56 54 55 54 50 50 50 47 44 42 37 38 41 46 49 50 48 46 46 44 43 44 42 42 35
62 64 65 65 64 64 65 66 67 66 67 67 67 65 63 64 60 58 56 54 52 51 49 44 42 42 42 43 44 42 40 39 40 39 38 40 44 47
Wind_Direction_500mb
255 256 258 260 255 250 248 243 243 246 253 255 247 250 248 256 260 264 260 260 262 264 268 272 274 271 267 264 264 266 266 268 268 261 255 262 266 265
253 256 261 261 254 250 248 244 239 240 245 243 237 233 246 256 257 260 250 247 256 261 263 261 262 264 264 259 256 257 261 262 259 259 263 266 265 267
255 257 260 261 255 251 249 248 246 242 246 242 241 238 246 252 258 264 247 249 256 258 255 257 254 247 245 246 244 248 251 253 257 259 263 267 272 276
258 258 260 263 257 250 249 250 251 248 247 252 256 255 256 255 258 258 239 243 247 254 248 250 249 247 252 253 252 255 253 256 261 266 268 270 272 276
260 259 261 258 252 248 248 248 249 249 246 253 261 267 269 266 259 244 241 246 238 244 244 243 247 250 253 256 257 263 268 270 272 272 271 274 276 279
255 255 254 252 250 246 245 246 246 248 248 251 257 264 267 263 257 241 240 243 242 243 245 245 250 253 255 255 257 263 268 269 268 271 275 277 279 280
254 254 253 252 247 245 246 245 244 246 248 251 254 258 262 258 244 229 241 244 247 249 251 251 252 254 257 257 257 262 267 267 267 269 272 275 278 281
254 254 251 249 245 241 243 247 246 246 250 250 252 250 254 250 219 231 248 250 256 256 256 254 257 260 260 262 262 264 267 269 269 269 274 278 276 279
251 252 251 249 245 244 243 238 246 256 254 252 246 243 249 239 236 242 253 255 254 251 258 256 253 260 261 265 267 267 269 268 266 270 274 272 274 279
252 252 254 252 247 249 247 243 241 241 244 250 251 245 249 247 249 252 251 255 257 260 264 272 268 264 262 261 264 264 263 262 266 269 269 270 275 275
255 254 253 253 252 253 256 254 252 250 248 243 245 254 255 252 253 252 258 265 269 270 268 267 275 282 277 266 263 262 263 264 268 269 269 274 271 270
257 260 258 259 258 257 259 263 261 257 251 245 247 252 257 258 259 259 261 262 266 275 275 268 274 284 294 280 268 259 258 257 258 262 269 266 270 278
258 259 259 256 255 255 254 262 267 276 272 269 254 250 253 255 255 253 256 260 260 256 267 272 272 276 274 270 274 273 262 262 265 260 257 270 278 279
254 261 261 255 251 246 245 249 258 265 271 268 268 264 261 259 261 263 261 260 260 260 263 268 271 272 273 277 276 272 271 272 271 269 268 269 270 274
252 256 259 256 250 245 246 244 245 246 250 255 259 262 264 266 264 266 264 260 257 258 260 260 262 266 266 268 273 276 280 280 276 270 273 275 276 275
249 251 254 258 259 258 256 250 246 242 246 249 253 258 260 262 264 266 269 268 265 261 261 261 260 258 260 262 267 271 273 270 275 281 291 283 278 278
256 258 256 260 263 266 266 264 258 255 252 252 256 261 264 267 269 272 268 259 254 261 262 255 257 256 256 258 260 260 264 269 273 288 286 283 282 284
278 269 266 266 270 273 272 274 275 273 273 258 255 260 268 274 270 261 261 250 254 254 257 253 253 257 256 256 254 257 259 268 276 278 279 284 287 286
262 276 279 278 277 271 273 275 273 274 275 274 274 274 276 277 272 264 261 260 256 256 254 254 257 255 258 258 256 257 264 270 273 273 279 281 283 286
270 273 276 274 273 271 269 270 269 269 270 270 269 271 273 275 275 276 273 267 263 261 260 256 254 256 257 263 268 268 267 269 273 276 276 277 281 283
272 271 273 272 272 271 269 268 267 267 268 266 264 263 264 266 267 270 271 270 267 265 264 262 261 257 256 257 260 267 273 274 275 278 282 283 285 285
278 276 275 274 274 275 275 275 274 273 272 271 270 267 265 263 263 262 264 266 267 269 268 262 256 254 256 258 264 269 272 273 274 274 276 276 280 280
273 272 272 272 272 273 273 273 274 273 272 270 268 267 265 263 262 260 260 261 261 262 264 264 263 261 261 263 266 269 271 272 273 273 277 281 282 283
Wind_Speed_850mb
40 40 40 40 42 44 47 46 46 33 22 26 34 37 39 38 32 32 25 25 25 23 25 26 26 25 25 26 27 28 28 29 26 26 26 25 24 22
42 43 43 41 43 41 40 36 37 41 32 21 24 30 29 30 32 33 28 26 26 25 24 24 23 21 21 21 20 17 17 18 17 19 19 19 18 19
45 44 43 42 41 40 40 40 41 42 48 48 40 27 32 33 35 31 25 25 26 24 23 23 21 18 16 16 16 15 14 14 14 15 15 16 17 18
47 47 48 46 47 45 44 43 44 44 48 49 47 48 53 51 44 26 26 24 24 25 22 20 19 18 17 18 19 19 18 17 17 19 19 20 21 23
50 52 51 48 45 45 45 44 44 44 43 46 47 46 45 39 34 35 36 26 25 28 26 24 23 23 23 22 21 22 24 25 25 25 24 24 25 27
46 46 44 43 40 39 40 42 42 42 42 42 43 47 45 34 32 26 31 32 30 33 31 29 29 30 30 30 30 29 28 30 31 31 31 30 31 32
43 43 41 40 38 39 40 40 40 42 43 43 46 46 46 34 25 25 28 30 32 35 35 34 34 35 35 37 37 36 33 33 34 36 36 35 36 37
42 41 38 36 37 39 40 39 43 44 46 46 48 43 34 23 21 25 28 30 30 32 34 37 39 39 38 41 39 39 38 38 39 38 38 41 41 41
40 38 36 35 34 36 38 38 41 42 44 47 50 36 27 20 23 28 31 35 37 37 40 43 38 39 35 40 41 42 45 43 41 42 44 43 42 45
41 38 36 34 33 36 39 42 47 51 49 47 49 41 41 34 35 34 40 44 46 47 44 55 50 46 40 41 45 46 45 44 44 45 44 45 46 47
45 42 40 40 36 36 40 44 49 51 53 54 51 44 39 37 39 42 51 47 52 55 47 49 57 50 41 38 42 46 47 46 47 51 47 46 43 41
42 40 36 35 32 33 38 42 47 44 42 44 45 45 43 43 42 44 49 48 47 51 47 40 42 36 21 29 31 31 36 39 40 44 43 40 41 47
35 34 32 30 31 32 33 38 39 33 34 37 39 42 46 47 49 47 50 53 54 54 56 51 49 46 43 42 41 36 29 29 29 31 36 44 51 49
33 31 30 29 28 32 36 39 40 36 38 37 38 39 43 44 46 47 49 56 59 62 56 63 62 59 57 56 52 50 48 47 47 46 48 51 53 55
26 24 25 26 27 31 35 38 40 43 49 51 51 47 42 44 46 49 47 48 53 58 55 58 64 64 62 63 63 59 55 53 48 45 43 43 44 47
25 24 24 25 25 28 32 35 42 43 42 41 40 37 38 40 43 45 50 48 50 49 49 50 50 53 60 58 55 56 48 40 38 39 49 50 50 53
19 21 25 26 26 25 25 25 29 36 45 49 52 50 49 50 52 50 46 44 50 47 41 39 43 44 49 54 55 49 45 46 43 47 50 48 44 44
20 18 20 21 23 24 26 26 25 24 24 30 42 43 42 42 40 36 33 33 35 36 36 35 39 43 48 51 50 48 47 48 47 46 45 50 53 44
31 32 30 29 26 28 30 30 29 29 31 31 33 34 36 35 33 35 34 35 39 41 40 40 42 42 40 44 46 43 44 46 47 48 48 50 50 46
39 40 40 39 38 38 37 39 39 39 38 38 39 40 41 41 40 38 35 36 40 42 42 43 45 45 46 48 47 50 47 43 46 49 48 48 50 49
47 50 51 52 51 50 49 50 50 49 48 48 47 47 46 48 47 44 43 41 40 39 39 38 38 40 43 45 48 49 45 43 45 48 49 49 48 48
57 59 58 59 60 60 61 60 61 61 60 60 58 56 54 55 54 50 50 50 47 44 42 37 38 41 46 49 50 48 46 46 44 43 44 42 42 35
62 64 65 65 64 64 65 66 67 66 67 67 67 65 63 64 60 58 56 54 52 51 49 44 42 42 42 43 44 42 40 39 40 39 38 40 44 47
Wind_Direction_850mb
255 256 258 260 255 250 248 243 243 246 253 255 247 250 248 256 260 264 260 260 262 264 268 272 274 271 267 264 264 266 266 268 268 261 255 262 266 265
253 256 261 261 254 250 248 244 239 240 245 243 237 233 246 256 257 260 250 247 256 261 263 261 262 264 264 259 256 257 261 262 259 259 263 266 265 267
255 257 260 261 255 251 249 248 246 242 246 242 241 238 246 252 258 264 247 249 256 258 255 257 254 247 245 246 244 248 251 253 257 259 263 267 272 276
258 258 260 263 257 250 249 250 251 248 247 252 256 255 256 255 258 258 239 243 247 254 248 250 249 247 252 253 252 255 253 256 261 266 268 270 272 276
260 259 261 258 252 248 248 248 249 249 246 253 261 267 269 266 259 244 241 246 238 244 244 243 247 250 253 256 257 263 268 270 272 272 271 274 276 279
255 255 254 252 250 246 245 246 246 248 248 251 257 264 267 263 257 241 240 243 242 243 245 245 250 253 255 255 257 263 268 269 268 271 275 277 279 280
254 254 253 252 247 245 246 245 244 246 248 251 254 258 262 258 244 229 241 244 247 249 251 251 252 254 257 257 257 262 267 267 267 269 272 275 278 281
254 254 251 249 245 241 243 247 246 246 250 250 252 250 254 250 219 231 248 250 256 256 256 254 257 260 260 262 262 264 267 269 269 269 274 278 276 279
251 252 251 249 245 244 243 238 246 256 254 252 246 243 249 239 236 242 253 255 254 251 258 256 253 260 261 265 267 267 269 268 266 270 274 272 274 279
252 252 254 252 247 249 247 243 241 241 244 250 251 245 249 247 249 252 251 255 257 260 264 272 268 264 262 261 264 264 263 262 266 269 269 270 275 275
255 254 253 253 252 253 256 254 252 250 248 243 245 254 255 252 253 252 258 265 269 270 268 267 275 282 277 266 263 262 263 264 268 269 269 274 271 270
257 260 258 259 258 257 259 263 261 257 251 245 247 252 257 258 259 259 261 262 266 275 275 268 274 284 294 280 268 259 258 257 258 262 269 266 270 278
258 259 259 256 255 255 254 262 267 276 272 269 254 250 253 255 255 253 256 260 260 256 267 272 272 276 274 270 274 273 262 262 265 260 257 270 278 279
254 261 261 255 251 246 245 249 258 265 271 268 268 264 261 259 261 263 261 260 260 260 263 268 271 272 273 277 276 272 271 272 271 269 268 269 270 274
252 256 259 256 250 245 246 244 245 246 250 255 259 262 264 266 264 266 264 260 257 258 260 260 262 266 266 268 273 276 280 280 276 270 273 275 276 275
249 251 254 258 259 258 256 250 246 242 246 249 253 258 260 262 264 266 269 268 265 261 261 261 260 258 260 262 267 271 273 270 275 281 291 283 278 278
256 258 256 260 263 266 266 264 258 255 252 252 256 261 264 267 269 272 268 259 254 261 262 255 257 256 256 258 260 260 264 269 273 288 286 283 282 284
278 269 266 266 270 273 272 274 275 273 273 258 255 260 268 274 270 261 261 250 254 254 257 253 253 257 256 256 254 257 259 268 276 278 279 284 287 286
262 276 279 278 277 271 273 275 273 274 275 274 274 274 276 277 272 264 261 260 256 256 254 254 257 255 258 258 256 257 264 270 273 273 279 281 283 286
270 273 276 274 273 271 269 270 269 269 270 270 269 271 273 275 275 276 273 267 263 261 260 256 254 256 257 263 268 268 267 269 273 276 276 277 281 283
272 271 273 272 272 271 269 268 267 267 268 266 264 263 264 266 267 270 271 270 267 265 264 262 261 257 256 257 260 267 273 274 275 278 282 283 285 285
278 276 275 274 274 275 275 275 274 273 272 271 270 267 265 263 263 262 264 266 267 269 268 262 256 254 256 258 264 269 272 273 274 274 276 276 280 280
273 272 272 272 272 273 273 273 274 273 272 270 268 267 265 263 262 260 260 261 261 262 264 264 263 261 261 263 266 269 271 272 273 273 277 281 282 283